| time (UTC) | temp C | wind direction | speed KPH | gust KPH | rain 1hr cm | rain 24hr cm | rain mn cm | humidity % | barometer mb |
| 20260506005349 | 12 | 5 | 6.4 | 6.4 | 0.00 | 0.00 | 0.00 | 38 | 1010.6 |
| 20260506004844 | 12 | 8 | 8.0 | 11.3 | 0.00 | 0.00 | 0.00 | 38 | 1010.4 |
| 20260506004343 | 12 | 341 | 9.7 | 14.5 | 0.00 | 0.00 | 0.00 | 38 | 1010.4 |
| 20260506003838 | 12 | 346 | 9.7 | 11.3 | 0.00 | 0.00 | 0.00 | 38 | 1010.2 |
| 20260506003335 | 13 | 350 | 12.9 | 16.1 | 0.00 | 0.00 | 0.00 | 37 | 1010.3 |
| 20260506002831 | 13 | 345 | 8.0 | 12.9 | 0.00 | 0.00 | 0.00 | 37 | 1010.2 |
| 20260506002328 | 13 | 298 | 6.4 | 9.7 | 0.00 | 0.00 | 0.00 | 36 | 1009.8 |
| 20260506001823 | 13 | 331 | 4.8 | 4.8 | 0.00 | 0.00 | 0.00 | 36 | 1009.9 |
| 20260506001321 | 13 | 346 | 3.2 | 4.8 | 0.00 | 0.00 | 0.00 | 35 | 1010.1 |
| 20260506000818 | 13 | 299 | 6.4 | 6.4 | 0.00 | 0.00 | 0.00 | 35 | 1010.0 |
| 20260506000316 | 13 | 298 | 9.7 | 11.3 | 0.00 | 0.00 | 0.00 | 34 | 1010.0 |
| 20260505235812 | 14 | 357 | 6.4 | 9.7 | 0.00 | 0.00 | 0.00 | 34 | 1009.9 |
| 20260505235310 | 14 | 320 | 8.0 | 9.7 | 0.00 | 0.00 | 0.00 | 34 | 1009.8 |
| 20260505234806 | 14 | 260 | 3.2 | 4.8 | 0.00 | 0.00 | 0.00 | 33 | 1009.6 |
| 20260505234304 | 14 | 340 | 6.4 | 6.4 | 0.00 | 0.00 | 0.00 | 33 | 1009.7 |
| 20260505233801 | 14 | 318 | 6.4 | 6.4 | 0.00 | 0.00 | 0.00 | 33 | 1009.6 |
| 20260505233259 | 15 | 324 | 6.4 | 9.7 | 0.00 | 0.00 | 0.00 | 34 | 1009.7 |
| 20260505232755 | 14 | 295 | 6.4 | 9.7 | 0.00 | 0.00 | 0.00 | 34 | 1009.9 |
| 20260505232253 | 14 | 355 | 6.4 | 9.7 | 0.00 | 0.00 | 0.00 | 33 | 1009.7 |
| 20260505231749 | 14 | 336 | 6.4 | 9.7 | 0.00 | 0.00 | 0.00 | 33 | 1009.6 |
| 20260505231248 | 14 | 301 | 6.4 | 6.4 | 0.00 | 0.00 | 0.00 | 33 | 1009.8 |
| 20260505230746 | 14 | 323 | 9.7 | 12.9 | 0.00 | 0.00 | 0.00 | 34 | 1009.8 |
| 20260505230242 | 14 | 349 | 6.4 | 6.4 | 0.00 | 0.00 | 0.00 | 33 | 1009.9 |
| 20260505225739 | 14 | 307 | 9.7 | 11.3 | 0.00 | 0.00 | 0.00 | 34 | 1009.9 |
| 20260505225236 | 14 | 327 | 4.8 | 6.4 | 0.00 | 0.00 | 0.00 | 34 | 1009.8 |
| 20260505224731 | 14 | 334 | 4.8 | 4.8 | 0.00 | 0.00 | 0.00 | 33 | 1010.0 |
| 20260505224229 | 14 | 278 | 4.8 | 6.4 | 0.00 | 0.00 | 0.00 | 33 | 1009.8 |
| 20260505223727 | 14 | 279 | 4.8 | 6.4 | 0.00 | 0.00 | 0.00 | 33 | 1010.0 |
| 20260505223223 | 14 | 307 | 9.7 | 11.3 | 0.00 | 0.00 | 0.00 | 32 | 1010.0 |
| 20260505222719 | 14 | 309 | 3.2 | 4.8 | 0.00 | 0.00 | 0.00 | 32 | 1010.1 |
| 20260505222215 | 14 | 274 | 4.8 | 6.4 | 0.00 | 0.00 | 0.00 | 32 | 1010.0 |
| 20260505221713 | 14 | 347 | 4.8 | 4.8 | 0.00 | 0.00 | 0.00 | 32 | 1010.1 |
| 20260505221209 | 14 | 293 | 9.7 | 16.1 | 0.00 | 0.00 | 0.00 | 31 | 1010.2 |
| 20260505220706 | 14 | 313 | 11.3 | 12.9 | 0.00 | 0.00 | 0.00 | 32 | 1010.1 |
| 20260505220204 | 14 | 254 | 8.0 | 9.7 | 0.00 | 0.00 | 0.00 | 32 | 1010.3 |
| 20260505215701 | 14 | 321 | 6.4 | 9.7 | 0.00 | 0.00 | 0.00 | 32 | 1010.3 |
| 20260505215159 | 14 | 323 | 4.8 | 4.8 | 0.00 | 0.00 | 0.00 | 31 | 1010.3 |
| 20260505214657 | 14 | 355 | 3.2 | 4.8 | 0.00 | 0.00 | 0.00 | 31 | 1010.2 |
| 20260505214154 | 14 | 337 | 4.8 | 6.4 | 0.00 | 0.00 | 0.00 | 31 | 1010.3 |
| 20260505213651 | 14 | 293 | 9.7 | 11.3 | 0.00 | 0.00 | 0.00 | 32 | 1010.3 |
| 20260505213148 | 13 | 324 | 12.9 | 16.1 | 0.00 | 0.00 | 0.00 | 31 | 1010.4 |
| 20260505212644 | 14 | 345 | 9.7 | 14.5 | 0.00 | 0.00 | 0.00 | 32 | 1010.3 |
| 20260505212142 | 14 | 344 | 12.9 | 14.5 | 0.00 | 0.00 | 0.00 | 32 | 1010.6 |
| 20260505211638 | 14 | 328 | 11.3 | 12.9 | 0.00 | 0.00 | 0.00 | 32 | 1010.6 |
| 20260505211136 | 13 | 320 | 9.7 | 11.3 | 0.00 | 0.00 | 0.00 | 32 | 1010.5 |
| 20260505210632 | 14 | 292 | 12.9 | 17.7 | 0.00 | 0.00 | 0.00 | 33 | 1010.4 |
| 20260505210129 | 14 | 349 | 9.7 | 12.9 | 0.00 | 0.00 | 0.00 | 33 | 1010.4 |
| 20260505205626 | 14 | 336 | 12.9 | 14.5 | 0.00 | 0.00 | 0.00 | 32 | 1010.6 |
| 20260505205125 | 13 | 281 | 8.0 | 11.3 | 0.00 | 0.00 | 0.00 | 32 | 1010.7 |
| 20260505204621 | 15 | 311 | 8.0 | 11.3 | 0.00 | 0.00 | 0.00 | 31 | 1010.5 |
| 20260505204119 | 14 | 340 | 3.2 | 3.2 | 0.00 | 0.00 | 0.00 | 32 | 1010.4 |
| 20260505203615 | 14 | 303 | 14.5 | 20.9 | 0.00 | 0.00 | 0.00 | 31 | 1010.4 |
| 20260505203113 | 15 | 268 | 14.5 | 20.9 | 0.00 | 0.00 | 0.00 | 31 | 1010.5 |
| 20260505202608 | 15 | 313 | 8.0 | 14.5 | 0.00 | 0.00 | 0.00 | 31 | 1010.6 |
| 20260505202104 | 14 | 328 | 3.2 | 4.8 | 0.00 | 0.00 | 0.00 | 31 | 1010.8 |
| 20260505201601 | 14 | 340 | 11.3 | 14.5 | 0.00 | 0.00 | 0.00 | 32 | 1010.6 |
| 20260505201059 | 15 | 214 | 6.4 | 6.4 | 0.00 | 0.00 | 0.00 | 30 | 1010.9 |
| 20260505200557 | 15 | 330 | 11.3 | 12.9 | 0.00 | 0.00 | 0.00 | 31 | 1010.9 |
| 20260505200053 | 14 | 311 | 4.8 | 6.4 | 0.00 | 0.00 | 0.00 | 31 | 1010.9 |
| 20260505195549 | 13 | 312 | 6.4 | 6.4 | 0.00 | 0.00 | 0.00 | 31 | 1010.9 |
| 20260505195047 | 14 | 351 | 4.8 | 6.4 | 0.00 | 0.00 | 0.00 | 32 | 1011.0 |
| 20260505194544 | 13 | 318 | 16.1 | 17.7 | 0.00 | 0.00 | 0.00 | 32 | 1011.0 |
| 20260505194039 | 14 | 14 | 14.5 | 17.7 | 0.00 | 0.00 | 0.00 | 31 | 1011.1 |
| 20260505193537 | 13 | 349 | 14.5 | 17.7 | 0.00 | 0.00 | 0.00 | 33 | 1011.2 |
| 20260505193034 | 13 | 321 | 8.0 | 12.9 | 0.00 | 0.00 | 0.00 | 33 | 1011.4 |
| 20260505192532 | 13 | 333 | 9.7 | 14.5 | 0.00 | 0.00 | 0.00 | 33 | 1011.5 |
| 20260505192030 | 13 | 269 | 14.5 | 20.9 | 0.00 | 0.00 | 0.00 | 33 | 1011.7 |
| 20260505191528 | 13 | 304 | 3.2 | 4.8 | 0.00 | 0.00 | 0.00 | 33 | 1011.7 |
| 20260505191026 | 13 | 303 | 6.4 | 11.3 | 0.00 | 0.00 | 0.00 | 32 | 1011.9 |
| 20260505190520 | 13 | 259 | 11.3 | 14.5 | 0.00 | 0.00 | 0.00 | 32 | 1011.8 |
| 20260505190016 | 13 | 282 | 4.8 | 4.8 | 0.00 | 0.00 | 0.00 | 32 | 1011.9 |
| 20260505185513 | 13 | 336 | 6.4 | 11.3 | 0.00 | 0.00 | 0.00 | 33 | 1011.9 |
| 20260505185009 | 13 | 288 | 11.3 | 14.5 | 0.00 | 0.00 | 0.00 | 33 | 1011.8 |
| 20260505184506 | 13 | 239 | 9.7 | 14.5 | 0.00 | 0.00 | 0.00 | 31 | 1012.0 |
| 20260505184003 | 13 | 290 | 14.5 | 17.7 | 0.00 | 0.00 | 0.00 | 32 | 1012.2 |
| 20260505183500 | 13 | 276 | 8.0 | 12.9 | 0.00 | 0.00 | 0.00 | 32 | 1011.9 |
| 20260505182956 | 12 | 322 | 12.9 | 14.5 | 0.00 | 0.00 | 0.00 | 33 | 1011.9 |
| 20260505182453 | 13 | 346 | 4.8 | 9.7 | 0.00 | 0.00 | 0.00 | 31 | 1011.9 |
| 20260505181949 | 12 | 247 | 9.7 | 14.5 | 0.00 | 0.00 | 0.00 | 31 | 1012.0 |
| 20260505181447 | 13 | 291 | 6.4 | 9.7 | 0.00 | 0.00 | 0.00 | 31 | 1011.9 |
| 20260505180944 | 13 | 198 | 14.5 | 17.7 | 0.00 | 0.00 | 0.00 | 32 | 1012.0 |
| 20260505180440 | 13 | 280 | 9.7 | 11.3 | 0.00 | 0.00 | 0.00 | 32 | 1012.0 |
| 20260505175937 | 12 | 323 | 6.4 | 9.7 | 0.00 | 0.00 | 0.00 | 32 | 1011.9 |
| 20260505175433 | 12 | 218 | 9.7 | 11.3 | 0.00 | 0.00 | 0.00 | 31 | 1011.9 |
| 20260505174930 | 12 | 259 | 9.7 | 11.3 | 0.00 | 0.00 | 0.00 | 31 | 1012.1 |
| 20260505174427 | 12 | 289 | 6.4 | 11.3 | 0.00 | 0.00 | 0.00 | 32 | 1012.0 |
| 20260505173923 | 12 | 317 | 14.5 | 14.5 | 0.00 | 0.00 | 0.00 | 32 | 1012.1 |
| 20260505173420 | 12 | 303 | 14.5 | 16.1 | 0.00 | 0.00 | 0.00 | 32 | 1012.0 |
| 20260505172917 | 12 | 329 | 1.6 | 1.6 | 0.00 | 0.00 | 0.00 | 32 | 1012.2 |
| 20260505172415 | 11 | 315 | 3.2 | 4.8 | 0.00 | 0.00 | 0.00 | 33 | 1012.2 |
| 20260505171914 | 11 | 296 | 9.7 | 12.9 | 0.00 | 0.00 | 0.00 | 32 | 1012.1 |
| 20260505171411 | 12 | 316 | 17.7 | 17.7 | 0.00 | 0.00 | 0.00 | 33 | 1012.1 |
| 20260505170908 | 11 | 319 | 9.7 | 11.3 | 0.00 | 0.00 | 0.00 | 33 | 1012.3 |
| 20260505170405 | 11 | 336 | 14.5 | 17.7 | 0.00 | 0.00 | 0.00 | 33 | 1012.1 |
| 20260505165900 | 11 | 296 | 14.5 | 17.7 | 0.00 | 0.00 | 0.00 | 33 | 1011.7 |
| 20260505165356 | 12 | 287 | 9.7 | 12.9 | 0.00 | 0.00 | 0.00 | 33 | 1011.8 |
| 20260505164852 | 12 | 332 | 14.5 | 16.1 | 0.00 | 0.00 | 0.00 | 33 | 1012.0 |
| 20260505164348 | 12 | 12 | 6.4 | 9.7 | 0.00 | 0.00 | 0.00 | 31 | 1011.8 |
| 20260505163847 | 12 | 286 | 6.4 | 9.7 | 0.00 | 0.00 | 0.00 | 32 | 1012.0 |
| 20260505163346 | 11 | 317 | 9.7 | 12.9 | 0.00 | 0.00 | 0.00 | 32 | 1011.8 |
| 20260505162844 | 11 | 344 | 4.8 | 9.7 | 0.00 | 0.00 | 0.00 | 32 | 1011.8 |
| 20260505162339 | 11 | 315 | 8.0 | 9.7 | 0.00 | 0.00 | 0.00 | 33 | 1012.0 |
| 20260505161837 | 11 | 302 | 14.5 | 16.1 | 0.00 | 0.00 | 0.00 | 32 | 1012.0 |
| 20260505161334 | 11 | 328 | 9.7 | 14.5 | 0.00 | 0.00 | 0.00 | 32 | 1012.0 |
| 20260505160831 | 11 | 318 | 12.9 | 17.7 | 0.00 | 0.00 | 0.00 | 32 | 1011.9 |
| 20260505160329 | 11 | 303 | 6.4 | 9.7 | 0.00 | 0.00 | 0.00 | 32 | 1012.0 |
| 20260505153308 | 11 | 354 | 6.4 | 9.7 | 0.00 | 0.00 | 0.00 | 32 | 1011.5 |
| 20260505152805 | 11 | 316 | 3.2 | 6.4 | 0.00 | 0.00 | 0.00 | 32 | 1011.2 |
| 20260505152304 | 11 | 347 | 9.7 | 12.9 | 0.00 | 0.00 | 0.00 | 33 | 1011.5 |
| 20260505151755 | 11 | 311 | 9.7 | 11.3 | 0.00 | 0.00 | 0.00 | 32 | 1011.5 |
| 20260505151253 | 11 | 335 | 12.9 | 14.5 | 0.00 | 0.00 | 0.00 | 32 | 1011.4 |
| 20260505150750 | 11 | 327 | 6.4 | 6.4 | 0.00 | 0.00 | 0.00 | 32 | 1011.4 |
| 20260505150247 | 11 | 328 | 9.7 | 12.9 | 0.00 | 0.00 | 0.00 | 32 | 1011.4 |
| 20260505140217 | 10 | 342 | 6.4 | 9.7 | 0.00 | 0.00 | 0.00 | 40 | 1011.3 |
| 20260505130141 | 10 | 307 | 6.4 | 6.4 | 0.00 | 0.00 | 0.00 | 46 | 1011.9 |
| 20260505124630 | 9 | 323 | 3.2 | 4.8 | 0.00 | 0.00 | 0.00 | 51 | 1012.5 |
| 20260505124127 | 8 | 285 | 1.6 | 3.2 | 0.00 | 0.00 | 0.00 | 50 | 1012.4 |
| 20260505123623 | 8 | 294 | 6.4 | 6.4 | 0.00 | 0.00 | 0.00 | 51 | 1012.3 |
| 20260505123120 | 9 | 254 | 0.0 | 1.6 | 0.00 | 0.00 | 0.00 | 49 | 1012.1 |
| 20260505122617 | 9 | 270 | 3.2 | 4.8 | 0.00 | 0.00 | 0.00 | 49 | 1012.1 |
| 20260505122114 | 9 | 347 | 1.6 | 3.2 | 0.00 | 0.00 | 0.00 | 48 | 1012.0 |
| 20260505121610 | 9 | 317 | 0.0 | 0.0 | 0.00 | 0.00 | 0.00 | 48 | 1012.0 |
| 20260505121107 | 8 | 300 | 3.2 | 3.2 | 0.00 | 0.00 | 0.00 | 49 | 1011.8 |
| 20260505120603 | 8 | 326 | 1.6 | 1.6 | 0.00 | 0.00 | 0.00 | 49 | 1011.7 |
| 20260505120059 | 8 | 280 | 1.6 | 1.6 | 0.00 | 0.00 | 0.00 | 48 | 1011.7 |
| 20260505115554 | 8 | 304 | 1.6 | 1.6 | 0.00 | 0.00 | 0.00 | 48 | 1011.7 |
| 20260505115051 | 8 | 309 | 0.0 | 1.6 | 0.00 | 0.00 | 0.00 | 49 | 1011.5 |
| 20260505114548 | 8 | 321 | 0.0 | 0.0 | 0.00 | 0.00 | 0.00 | 49 | 1011.4 |
| 20260505114044 | 8 | 335 | 0.0 | 0.0 | 0.00 | 0.00 | 0.00 | 51 | 1011.1 |
| 20260505113541 | 8 | 350 | 1.6 | 1.6 | 0.00 | 0.00 | 0.00 | 51 | 1010.9 |
| 20260505113037 | 8 | 321 | 3.2 | 4.8 | 0.00 | 0.00 | 0.00 | 50 | 1010.9 |
| 20260505112529 | 8 | 328 | 1.6 | 1.6 | 0.00 | 0.00 | 0.00 | 50 | 1011.1 |
| 20260505112027 | 8 | 319 | 1.6 | 1.6 | 0.00 | 0.00 | 0.00 | 50 | 1011.0 |
| 20260505111525 | 8 | 299 | 3.2 | 4.8 | 0.00 | 0.00 | 0.00 | 50 | 1010.9 |
| 20260505111022 | 8 | 319 | 1.6 | 1.6 | 0.00 | 0.00 | 0.00 | 50 | 1010.5 |
| 20260505110519 | 8 | 330 | 1.6 | 1.6 | 0.00 | 0.00 | 0.00 | 50 | 1010.3 |
| 20260505101951 | 9 | 326 | 4.8 | 6.4 | 0.00 | 0.00 | 0.00 | 44 | 1009.4 |
| 20260505101449 | 9 | 351 | 6.4 | 9.7 | 0.00 | 0.00 | 0.00 | 44 | 1009.6 |
| 20260505100945 | 9 | 333 | 6.4 | 6.4 | 0.00 | 0.00 | 0.00 | 43 | 1009.3 |
| 20260505100443 | 9 | 319 | 9.7 | 11.3 | 0.00 | 0.00 | 0.00 | 43 | 1008.8 |
| 20260505095939 | 9 | 328 | 6.4 | 6.4 | 0.00 | 0.00 | 0.00 | 43 | 1008.8 |
| 20260505095436 | 9 | 352 | 6.4 | 6.4 | 0.00 | 0.00 | 0.00 | 42 | 1008.8 |
| 20260505094932 | 9 | 355 | 11.3 | 14.5 | 0.00 | 0.00 | 0.00 | 42 | 1009.2 |
| 20260505094429 | 10 | 350 | 4.8 | 4.8 | 0.00 | 0.00 | 0.00 | 42 | 1009.0 |
| 20260505093925 | 10 | 337 | 6.4 | 6.4 | 0.00 | 0.00 | 0.00 | 42 | 1009.2 |
| 20260505093422 | 10 | 7 | 6.4 | 9.7 | 0.00 | 0.00 | 0.00 | 42 | 1009.3 |
| 20260505092919 | 10 | 69 | 6.4 | 9.7 | 0.00 | 0.00 | 0.00 | 42 | 1009.9 |
| 20260505092417 | 10 | 333 | 12.9 | 16.1 | 0.00 | 0.00 | 0.00 | 41 | 1009.9 |
| 20260505091914 | 10 | 298 | 19.3 | 24.1 | 0.00 | 0.00 | 0.00 | 41 | 1010.0 |
| 20260505091412 | 10 | 351 | 8.0 | 9.7 | 0.00 | 0.00 | 0.00 | 41 | 1009.6 |
| 20260505090909 | 10 | 276 | 9.7 | 12.9 | 0.00 | 0.00 | 0.00 | 41 | 1009.5 |
| 20260505090408 | 10 | 346 | 9.7 | 12.9 | 0.00 | 0.00 | 0.00 | 43 | 1009.1 |
| 20260505085904 | 10 | 9 | 6.4 | 9.7 | 0.00 | 0.00 | 0.00 | 45 | 1009.1 |
| 20260505085402 | 10 | 320 | 9.7 | 12.9 | 0.00 | 0.00 | 0.00 | 45 | 1008.8 |
| 20260505084900 | 10 | 299 | 4.8 | 9.7 | 0.00 | 0.00 | 0.00 | 45 | 1008.6 |
| 20260505084358 | 10 | 357 | 9.7 | 12.9 | 0.00 | 0.00 | 0.00 | 46 | 1008.7 |
| 20260505083855 | 10 | 330 | 4.8 | 6.4 | 0.00 | 0.00 | 0.00 | 46 | 1008.3 |
| 20260505083353 | 10 | 336 | 11.3 | 14.5 | 0.00 | 0.00 | 0.00 | 46 | 1008.3 |
| 20260505082849 | 10 | 326 | 12.9 | 14.5 | 0.00 | 0.00 | 0.00 | 46 | 1008.8 |
| 20260505082345 | 10 | 349 | 4.8 | 6.4 | 0.00 | 0.00 | 0.00 | 47 | 1009.0 |
| 20260505081842 | 10 | 302 | 19.3 | 24.1 | 0.00 | 0.00 | 0.00 | 45 | 1008.2 |
| 20260505081339 | 10 | 348 | 11.3 | 14.5 | 0.00 | 0.00 | 0.00 | 46 | 1007.7 |
| 20260505080836 | 10 | 308 | 6.4 | 6.4 | 0.00 | 0.00 | 0.00 | 46 | 1008.1 |
| 20260505080331 | 10 | 308 | 11.3 | 14.5 | 0.00 | 0.00 | 0.00 | 46 | 1008.5 |
| 20260505075827 | 10 | 269 | 17.7 | 22.5 | 0.00 | 0.00 | 0.00 | 45 | 1008.7 |
| 20260505075324 | 10 | 321 | 16.1 | 17.7 | 0.00 | 0.00 | 0.00 | 45 | 1008.1 |
| 20260505074821 | 10 | 328 | 19.3 | 24.1 | 0.00 | 0.00 | 0.00 | 45 | 1008.5 |
| 20260505074319 | 10 | 359 | 11.3 | 12.9 | 0.00 | 0.00 | 0.00 | 46 | 1008.6 |
| 20260505073816 | 10 | 311 | 14.5 | 16.1 | 0.00 | 0.00 | 0.00 | 47 | 1008.0 |
| 20260505073314 | 10 | 307 | 4.8 | 6.4 | 0.00 | 0.00 | 0.00 | 47 | 1008.1 |
| 20260505072811 | 10 | 309 | 11.3 | 12.9 | 0.00 | 0.00 | 0.00 | 46 | 1008.0 |
| 20260505072306 | 10 | 325 | 8.0 | 9.7 | 0.00 | 0.00 | 0.00 | 46 | 1007.8 |
| 20260505071802 | 10 | 319 | 14.5 | 16.1 | 0.00 | 0.00 | 0.00 | 45 | 1007.8 |
| 20260505071259 | 10 | 5 | 9.7 | 12.9 | 0.00 | 0.00 | 0.00 | 45 | 1007.4 |
| 20260505070757 | 10 | 290 | 9.7 | 16.1 | 0.00 | 0.00 | 0.00 | 44 | 1007.1 |
| 20260505070254 | 10 | 345 | 19.3 | 24.1 | 0.00 | 0.00 | 0.00 | 44 | 1007.0 |
| 20260505065749 | 10 | 318 | 9.7 | 11.3 | 0.00 | 0.00 | 0.00 | 45 | 1006.9 |
| 20260505065246 | 10 | 359 | 9.7 | 14.5 | 0.00 | 0.00 | 0.00 | 45 | 1007.1 |
| 20260505064743 | 10 | 3 | 12.9 | 17.7 | 0.00 | 0.00 | 0.00 | 46 | 1007.0 |
| 20260505064240 | 10 | 339 | 14.5 | 22.5 | 0.00 | 0.00 | 0.00 | 46 | 1006.8 |
| 20260505063738 | 10 | 348 | 12.9 | 14.5 | 0.00 | 0.00 | 0.00 | 46 | 1006.7 |
| 20260505063234 | 11 | 256 | 11.3 | 16.1 | 0.00 | 0.00 | 0.00 | 46 | 1006.6 |
| 20260505062730 | 11 | 330 | 6.4 | 11.3 | 0.00 | 0.00 | 0.00 | 46 | 1006.8 |
| 20260505062228 | 11 | 324 | 19.3 | 24.1 | 0.00 | 0.00 | 0.00 | 46 | 1006.8 |
| 20260505061725 | 11 | 296 | 11.3 | 12.9 | 0.00 | 0.00 | 0.00 | 47 | 1006.7 |
| 20260505061223 | 11 | 327 | 4.8 | 6.4 | 0.00 | 0.00 | 0.00 | 47 | 1006.6 |
| 20260505060720 | 11 | 311 | 16.1 | 20.9 | 0.00 | 0.00 | 0.00 | 47 | 1006.5 |
| 20260505060217 | 11 | 311 | 20.9 | 22.5 | 0.00 | 0.00 | 0.00 | 47 | 1006.3 |
| 20260505055712 | 11 | 334 | 8.0 | 11.3 | 0.00 | 0.00 | 0.00 | 47 | 1006.1 |
| 20260505055209 | 11 | 346 | 12.9 | 14.5 | 0.00 | 0.00 | 0.00 | 47 | 1005.8 |
| 20260505054706 | 11 | 350 | 12.9 | 16.1 | 0.00 | 0.00 | 0.00 | 47 | 1005.8 |
| 20260505054204 | 11 | 19 | 14.5 | 17.7 | 0.00 | 0.00 | 0.00 | 46 | 1005.6 |
| 20260505053702 | 11 | 351 | 16.1 | 22.5 | 0.00 | 0.00 | 0.00 | 46 | 1005.7 |
| 20260505053158 | 12 | 342 | 9.7 | 12.9 | 0.00 | 0.00 | 0.00 | 46 | 1005.5 |
| 20260505052655 | 12 | 335 | 17.7 | 24.1 | 0.00 | 0.00 | 0.00 | 46 | 1005.8 |
| 20260505052152 | 12 | 310 | 14.5 | 16.1 | 0.00 | 0.00 | 0.00 | 46 | 1005.7 |
| 20260505051649 | 12 | 256 | 14.5 | 16.1 | 0.00 | 0.00 | 0.00 | 46 | 1005.6 |
| 20260505051147 | 12 | 304 | 9.7 | 11.3 | 0.00 | 0.00 | 0.00 | 46 | 1005.8 |
| 20260505050645 | 12 | 320 | 9.7 | 11.3 | 0.00 | 0.00 | 0.00 | 45 | 1005.7 |
| 20260505050143 | 12 | 337 | 12.9 | 16.1 | 0.00 | 0.00 | 0.00 | 45 | 1005.5 |
| 20260505041612 | 13 | 301 | 8.0 | 9.7 | 0.00 | 0.00 | 0.00 | 40 | 1005.3 |
| 20260505041110 | 13 | 312 | 8.0 | 9.7 | 0.00 | 0.00 | 0.00 | 39 | 1005.2 |
| 20260505040607 | 14 | 325 | 6.4 | 9.7 | 0.00 | 0.00 | 0.00 | 39 | 1005.1 |
| 20260505040104 | 14 | 326 | 9.7 | 11.3 | 0.00 | 0.00 | 0.00 | 38 | 1005.5 |
| 20260505035600 | 14 | 336 | 8.0 | 11.3 | 0.00 | 0.00 | 0.00 | 38 | 1005.1 |
| 20260505035057 | 14 | 303 | 8.0 | 11.3 | 0.00 | 0.00 | 0.00 | 38 | 1005.1 |
| 20260505034553 | 14 | 251 | 4.8 | 4.8 | 0.00 | 0.00 | 0.00 | 37 | 1005.1 |
| 20260505034050 | 14 | 308 | 6.4 | 9.7 | 0.00 | 0.00 | 0.00 | 37 | 1005.2 |
| 20260505033547 | 15 | 310 | 6.4 | 9.7 | 0.00 | 0.00 | 0.00 | 37 | 1005.0 |
| 20260505033045 | 15 | 335 | 6.4 | 6.4 | 0.00 | 0.00 | 0.00 | 36 | 1004.8 |
| 20260505032543 | 15 | 323 | 8.0 | 9.7 | 0.00 | 0.00 | 0.00 | 36 | 1005.0 |
| 20260505032039 | 15 | 301 | 8.0 | 11.3 | 0.00 | 0.00 | 0.00 | 36 | 1004.8 |
| 20260505031537 | 15 | 263 | 9.7 | 12.9 | 0.00 | 0.00 | 0.00 | 36 | 1004.9 |
| 20260505031033 | 15 | 335 | 9.7 | 12.9 | 0.00 | 0.00 | 0.00 | 36 | 1004.7 |
| 20260505030530 | 15 | 8 | 12.9 | 14.5 | 0.00 | 0.00 | 0.00 | 35 | 1005.0 |
| 20260505030026 | 15 | 1 | 14.5 | 17.7 | 0.00 | 0.00 | 0.00 | 35 | 1005.0 |
| 20260505025522 | 16 | 314 | 8.0 | 9.7 | 0.00 | 0.00 | 0.00 | 36 | 1005.0 |
| 20260505025021 | 15 | 310 | 9.7 | 11.3 | 0.00 | 0.00 | 0.00 | 36 | 1004.8 |
| 20260505024518 | 16 | 293 | 8.0 | 12.9 | 0.00 | 0.00 | 0.00 | 35 | 1004.8 |
| 20260505024015 | 16 | 320 | 11.3 | 12.9 | 0.00 | 0.00 | 0.00 | 35 | 1004.8 |
| 20260505023511 | 16 | 305 | 8.0 | 9.7 | 0.00 | 0.00 | 0.00 | 36 | 1004.6 |
| 20260505023009 | 16 | 322 | 4.8 | 4.8 | 0.00 | 0.00 | 0.00 | 36 | 1004.4 |
| 20260505022507 | 16 | 343 | 8.0 | 11.3 | 0.00 | 0.00 | 0.00 | 36 | 1004.3 |
| 20260505022004 | 16 | 336 | 6.4 | 9.7 | 0.00 | 0.00 | 0.00 | 35 | 1003.9 |
| 20260505021500 | 16 | 309 | 9.7 | 16.1 | 0.00 | 0.00 | 0.00 | 35 | 1004.1 |
| 20260505020955 | 17 | 328 | 16.1 | 20.9 | 0.00 | 0.00 | 0.00 | 35 | 1003.8 |
| 20260505020451 | 17 | 309 | 12.9 | 14.5 | 0.00 | 0.00 | 0.00 | 35 | 1003.7 |
| 20260505015948 | 17 | 314 | 12.9 | 14.5 | 0.00 | 0.00 | 0.00 | 36 | 1003.4 |
| 20260505015446 | 17 | 3 | 6.4 | 9.7 | 0.00 | 0.00 | 0.00 | 37 | 1003.3 |
| 20260505014942 | 17 | 305 | 8.0 | 12.9 | 0.00 | 0.00 | 0.00 | 37 | 1003.2 |
| 20260505014439 | 17 | 313 | 16.1 | 20.9 | 0.00 | 0.00 | 0.00 | 36 | 1003.2 |
| 20260505013937 | 17 | 310 | 11.3 | 14.5 | 0.00 | 0.00 | 0.00 | 36 | 1002.9 |
| 20260505013433 | 18 | 343 | 14.5 | 22.5 | 0.00 | 0.00 | 0.00 | 36 | 1002.7 |
| 20260505012931 | 18 | 308 | 9.7 | 11.3 | 0.00 | 0.00 | 0.00 | 37 | 1002.7 |
| 20260505012429 | 18 | 1 | 9.7 | 12.9 | 0.00 | 0.00 | 0.00 | 37 | 1002.6 |
| 20260505011925 | 18 | 342 | 12.9 | 16.1 | 0.00 | 0.00 | 0.00 | 36 | 1002.4 |
| 20260505011422 | 18 | 339 | 16.1 | 16.1 | 0.00 | 0.00 | 0.00 | 36 | 1002.2 |
| 20260505010918 | 18 | 345 | 20.9 | 27.4 | 0.00 | 0.00 | 0.00 | 35 | 1002.1 |
| 20260505010414 | 19 | 316 | 17.7 | 20.9 | 0.00 | 0.00 | 0.00 | 35 | 1001.9 |
| 20260505005910 | 20 | 333 | 12.9 | 16.1 | 0.00 | 0.00 | 0.00 | 35 | 1001.9 |